This is the latest recevied weather packets stored in our database for station/object KO6SRA-13. If no packets are shown the sender has not sent any weather packets the latest 10 day(s).
| Time | Temp. | Humidity | Pressure | Rain* | Wind** | Luminosity | Snow |
|---|---|---|---|---|---|---|---|
| 1787364093 | 17.78° C | 82% | 1019 hPa | 0 mm | - | 26 W/m² | - |
| 1787363792 | 17.78° C | 81% | 1018.7 hPa | 0 mm | - | 30 W/m² | - |
| 1787363487 | 17.78° C | 81% | 1019 hPa | 0 mm | - | 33 W/m² | - |
| 1787363187 | 17.78° C | 81% | 1018.7 hPa | 0 mm | - | 36 W/m² | - |
| 1787362882 | 18.33° C | 80% | 1018.8 hPa | 0 mm | - | 39 W/m² | - |
| 1787362578 | 18.33° C | 79% | 1018.7 hPa | 0 mm | - | 41 W/m² | - |
| 1787362274 | 18.33° C | 79% | 1018.7 hPa | 0 mm | - | 46 W/m² | - |
| 1787361972 | 18.33° C | 78% | 1018.7 hPa | 0 mm | - | 54 W/m² | - |
| 1787361667 | 18.89° C | 78% | 1018.7 hPa | 0 mm | - | 55 W/m² | - |
| 1787361367 | 18.89° C | 78% | 1018.6 hPa | 0 mm | - | 62 W/m² | - |
| 1787361062 | 18.33° C | 79% | 1018.5 hPa | 0 mm | - | 65 W/m² | - |
| 1787360756 | 18.33° C | 79% | 1018.8 hPa | 0 mm | - | 66 W/m² | - |
| 1787360451 | 18.33° C | 80% | 1018.8 hPa | 0 mm | - | 71 W/m² | - |
| 1787360146 | 18.33° C | 80% | 1018.8 hPa | 0 mm | - | 87 W/m² | - |
| 1787359842 | 18.33° C | 79% | 1018.8 hPa | 0 mm | - | 82 W/m² | - |
| 1787359538 | 18.89° C | 78% | 1018.7 hPa | 0 mm | - | 92 W/m² | - |
| 1787359238 | 18.89° C | 77% | 1018.8 hPa | 0 mm | - | 108 W/m² | - |
| 1787358933 | 19.44° C | 77% | 1018.8 hPa | 0 mm | - | 229 W/m² | - |
| 1787358634 | 18.89° C | 76% | 1018.6 hPa | 0 mm | - | 256 W/m² | - |
| 1787358333 | 18.89° C | 77% | 1018.6 hPa | 0 mm | - | 352 W/m² | - |
| 1787358029 | 19.44° C | 77% | 1018.6 hPa | 0 mm | - | 377 W/m² | - |
| 1787357725 | 20° C | 74% | 1018.6 hPa | 0 mm | - | 293 W/m² | - |
| 1787357420 | 19.44° C | 74% | 1018.7 hPa | 0 mm | - | 330 W/m² | - |
| 1787357115 | 19.44° C | 75% | 1018.6 hPa | 0 mm | - | 199 W/m² | - |
| 1787356811 | 18.89° C | 76% | 1018.7 hPa | 0 mm | - | 363 W/m² | - |
* Rain latest hour (hover to see other rain measurements)
** Current wind speed in m/s (hover to see current wind gust speed)